Location: Unspecified
(0.0000°N, 0.0000°E)
Time: 07:05:50
(UTC+00:00)

Transit 4A - Pass Details

Date: 31 May 2022
Orbit: 864 x 980 km, 66.8° (Epoch: 24 June)

Event Time Altitude Azimuth Distance (km) Brightness Sun altitude
Rises 11:54:12 0° 7° (N) 3,536 11.2 68.0°
Reaches altitude 10° 11:57:25 10° 23° (NNE) 2,575 10.7 68.0°
Maximum altitude 12:01:41 20° 69° (ENE) 1,921 10.0 68.0°
Drops below altitude 10° 12:05:52 10° 116° (ESE) 2,532 10.2 68.0°
Sets 12:08:58 0° 132° (SE) 3,459 10.7 67.9°
